Flag for U.S.A. Weather past 2 weeks in Asheville, North Carolina, U.S.A.

Now
27 °F

Clear.


Feels Like: 23 °F
Forecast: 19 / 53 °F
Wind: 3 mph from North

Location: Asheville Regional Airport

Current Time: Mar 29, 2015 at 7:26:14 AM

Latest Report: Mar 29, 2015 at 6:54 AM


Visibility: 10 mi

Pressure: 30.34 "Hg

Humidity: 46%

Dew point: 9 °F

Location of AshevilleLocation

Historic Weather in Asheville — Graph

°F

Asheville temperature yesterday

Maximum temperature yesterday: 42 °F (at 2:54 PM)
Minimum temperature yesterday: 27 °F (at 7:54 AM)
Average temperature yesterday: 34 °F

Past Weeks' High & Low Weather Summary

 TemperatureHumidityPressure
High77 °F (Mar 16, 4:54 PM)97% (Mar 14, 6:54 AM)30.31 "Hg (Mar 14, 6:54 AM)
Low27 °F (Mar 28, 7:54 AM)6% (Mar 16, 5:54 PM)29.67 "Hg (Mar 27, 4:54 AM)
Average53 °F63%30.05 "Hg
* Reported Mar 14 5:54 AM — Mar 29 5:54 AM, Asheville, Weather by CustomWeather, © 2015

Note: Actual official high and low records may vary slightly from our data, if they occured in-between our weather recording intervals... More about our weather records

Advertising

Asheville weather history for previous 24 hours

 ConditionsComfort  
Time TempWeatherWind HumidityBarometerVisibility
5:54 AM
Sun, Mar 29
27 °FClear.8 mph45%30.31 "Hg10 mi
4:54 AM28 °FClear.12 mph43%30.29 "Hg10 mi
3:54 AM29 °FClear.10 mph41%30.28 "Hg10 mi
2:54 AM30 °FClear.12 mph40%30.27 "Hg10 mi
1:54 AM31 °FClear.10 mph38%30.26 "Hg10 mi
12:54 AM32 °FClear.13 mph38%30.24 "Hg10 mi
11:54 PM
Sat, Mar 28
32 °FClear.12 mph40%30.24 "Hg10 mi
10:54 PM33 °FClear.12 mph38%30.23 "Hg10 mi
9:54 PM34 °FClear.8 mph38%30.22 "Hg10 mi
8:54 PM35 °FClear.12 mph36%30.19 "Hg10 mi
7:54 PM37 °FSunny.16 mph33%30.16 "Hg10 mi
6:54 PM39 °FSunny.20 mph30%30.14 "Hg10 mi
5:54 PM41 °FSunny.12 mph26%30.11 "Hg10 mi
4:54 PM42 °FSunny.13 mph25%30.08 "Hg10 mi
3:54 PM42 °FSunny.17 mph24%30.07 "Hg10 mi
2:54 PM42 °FSunny.13 mph25%30.07 "Hg10 mi
1:54 PM40 °FSunny.17 mph33%30.07 "Hg10 mi
12:54 PM38 °FSunny.17 mph34%30.08 "Hg10 mi
11:54 AM35 °FSunny.21 mph40%30.08 "Hg10 mi
10:54 AM33 °FSunny.16 mph43%30.08 "Hg10 mi
9:54 AM30 °FPassing clouds.18 mph47%30.06 "Hg10 mi
8:54 AM28 °FScattered clouds.18 mph53%30.04 "Hg10 mi
7:54 AM27 °FOvercast.22 mph61%30.01 "Hg10 mi
Weather by CustomWeather, © 2015

See weather overviewHow to use our weather pages